contact:dominique.lefevre@mio.osupytheas.fr, maurice.libes@osupytheas.fr, didier.mallarino@osupytheas.fr
Project:EMSO http://www.emso-fr.org/EMSO-France
Depth: 2436.0 m
Title:EMSO Ligure Ouest : Data MII capteur AQUADOPP
Date,Latitude,Longitude,X_East,Y_North,Z_Up,Amplitude_X,Amplitude_Y,Amplitude_Z,Batterie,SoundSpeed,Heading,Pitch,Roll,Pressure,TIS,Speed,Direction
, degrees North, degrees East, m.s-1, m.s-1,m.s-1, 1, 1, 1, Volt, m.s-1, degree, degree, degree, dbar, degree_C, m.s-1, degree
2019-11-17T00:04:03,42.805,6.029,0.001,0.017,-0.028,99.0,105.0,98.0,13.4,1505.3,327.3,-0.7,1.8,2470.232,13.33,0.017,3.4
2019-11-17T00:07:03,42.805,6.029,0.007,0.022,-0.055,99.0,103.0,98.0,13.4,1505.3,326.9,-0.7,1.8,2470.203,13.33,0.023,17.6
2019-11-17T00:10:03,42.805,6.029,0.003,0.017,-0.047,101.0,105.0,98.0,13.3,1505.4,326.7,-0.7,1.8,2470.188,13.34,0.017,10.0
2019-11-17T00:13:03,42.805,6.029,0.021,0.013,-0.022,101.0,105.0,98.0,13.4,1505.4,327.8,-0.7,1.8,2470.207,13.34,0.024,58.2
2019-11-17T00:16:03,42.805,6.029,0.008,0.018,-0.056,100.0,105.0,98.0,13.3,1505.4,326.3,-0.7,1.9,2470.184,13.34,0.019,24.0
2019-11-17T00:19:03,42.805,6.029,-0.004,0.01,-0.06,102.0,105.0,99.0,13.4,1505.4,324.4,-0.7,1.8,2470.214,13.34,0.01,338.2
2019-11-17T00:22:03,42.805,6.029,-0.002,0.017,-0.038,102.0,105.0,98.0,13.4,1505.4,327.6,-0.7,1.8,2470.174,13.34,0.017,353.3
2019-11-17T00:25:03,42.805,6.029,0.027,0.018,-0.019,100.0,104.0,99.0,13.3,1505.4,325.7,-0.7,1.9,2470.224,13.34,0.032,56.3
2019-11-17T00:28:03,42.805,6.029,-0.035,-0.001,-0.085,100.0,106.0,96.0,13.3,1505.4,327.9,-0.7,1.8,2470.207,13.34,0.035,268.4
2019-11-17T00:31:03,42.805,6.029,-0.026,0.008,-0.016,99.0,105.0,98.0,13.4,1505.4,323.4,-0.7,1.8,2470.189,13.34,0.027,287.1
2019-11-17T00:34:03,42.805,6.029,0.052,0.0,-0.029,100.0,106.0,98.0,13.3,1505.4,327.2,-0.7,1.8,2470.168,13.34,0.052,90.0
2019-11-17T00:37:03,42.805,6.029,0.004,0.02,-0.035,99.0,105.0,98.0,13.4,1505.4,325.4,-0.7,1.8,2470.157,13.34,0.02,11.3
2019-11-17T00:40:02,42.805,6.029,0.001,0.002,-0.062,99.0,105.0,99.0,13.3,1505.4,328.0,-0.7,1.9,2470.17,13.34,0.002,26.6
2019-11-17T00:43:03,42.805,6.029,-0.005,0.022,-0.038,100.0,104.0,100.0,13.4,1505.4,326.1,-0.7,1.8,2470.189,13.34,0.022,347.2
2019-11-17T00:46:03,42.805,6.029,-0.007,0.016,-0.026,100.0,105.0,98.0,13.4,1505.4,323.9,-0.7,1.8,2470.168,13.35,0.017,336.4
2019-11-17T00:49:03,42.805,6.029,-0.007,0.014,-0.072,99.0,106.0,99.0,13.4,1505.4,327.9,-0.7,1.8,2470.18,13.35,0.015,333.4
2019-11-17T00:52:02,42.805,6.029,0.03,0.019,-0.02,100.0,105.0,98.0,13.4,1505.4,324.0,-0.7,1.8,2470.172,13.35,0.035,57.7
2019-11-17T00:55:03,42.805,6.029,-0.005,0.024,-0.042,100.0,105.0,101.0,13.4,1505.4,324.2,-0.7,1.8,2470.16,13.35,0.024,348.2
2019-11-17T00:58:03,42.805,6.029,0.028,-0.005,-0.055,99.0,106.0,97.0,13.3,1505.4,324.8,-0.7,1.8,2470.206,13.35,0.028,100.1
2019-11-17T01:04:03,42.805,6.029,0.017,0.015,-0.031,99.0,105.0,99.0,13.4,1505.3,323.7,-0.7,1.8,2470.198,13.33,0.022,48.6
2019-11-17T01:07:03,42.805,6.029,0.024,0.022,-0.064,103.0,106.0,97.0,13.3,1505.4,327.5,-0.8,1.9,2470.232,13.34,0.032,47.5
2019-11-17T01:10:03,42.805,6.029,0.007,0.013,-0.072,100.0,107.0,97.0,13.3,1505.4,327.9,-0.8,1.8,2470.178,13.34,0.014,28.3
2019-11-17T01:13:03,42.805,6.029,0.014,0.018,-0.04,99.0,107.0,98.0,13.4,1505.4,324.0,-0.7,1.8,2470.132,13.34,0.022,37.9
2019-11-17T01:16:03,42.805,6.029,-0.002,0.013,-0.066,100.0,105.0,99.0,13.4,1505.4,326.8,-0.7,1.8,2470.186,13.35,0.013,351.3
2019-11-17T01:19:03,42.805,6.029,-0.012,0.014,-0.057,99.0,105.0,97.0,13.3,1505.4,323.1,-0.7,1.9,2470.237,13.35,0.018,319.4
2019-11-17T01:22:03,42.805,6.029,-0.001,0.0,-0.052,99.0,106.0,97.0,13.4,1505.4,326.0,-0.7,1.8,2470.178,13.35,0.001,270.0
2019-11-17T01:25:03,42.805,6.029,0.018,0.037,-0.025,100.0,104.0,97.0,13.4,1505.4,324.0,-0.7,1.8,2470.156,13.35,0.041,25.9
2019-11-17T01:28:03,42.805,6.029,-0.008,0.006,-0.03,100.0,104.0,98.0,13.4,1505.4,328.6,-0.7,1.8,2470.158,13.35,0.01,306.9
2019-11-17T01:31:03,42.805,6.029,0.01,0.031,-0.035,100.0,105.0,97.0,13.4,1505.4,327.0,-0.7,1.9,2470.149,13.35,0.032,17.9
2019-11-17T01:34:03,42.805,6.029,0.006,0.005,-0.041,98.0,106.0,99.0,13.3,1505.4,328.6,-0.6,1.8,2470.145,13.35,0.007,50.2
2019-11-17T01:37:03,42.805,6.029,0.007,0.003,-0.045,99.0,108.0,98.0,13.4,1505.4,323.2,-0.7,1.8,2470.127,13.35,0.007,66.8
2019-11-17T01:40:03,42.805,6.029,-0.006,0.017,-0.046,100.0,106.0,99.0,13.3,1505.4,324.6,-0.8,1.8,2470.168,13.35,0.018,340.6
2019-11-17T01:43:03,42.805,6.029,-0.006,0.029,-0.011,100.0,105.0,98.0,13.4,1505.4,325.6,-0.8,1.8,2470.144,13.35,0.029,348.3
2019-11-17T01:46:03,42.805,6.029,0.019,0.023,-0.014,100.0,107.0,97.0,13.4,1505.4,323.8,-0.7,1.9,2470.166,13.35,0.029,39.6
2019-11-17T01:49:03,42.805,6.029,0.017,0.013,-0.018,100.0,106.0,97.0,13.4,1505.4,326.9,-0.7,1.9,2470.166,13.35,0.021,52.6
2019-11-17T01:52:03,42.805,6.029,0.028,0.014,-0.029,100.0,106.0,99.0,13.4,1505.4,323.3,-0.7,1.8,2470.178,13.35,0.031,63.4
2019-11-17T01:55:03,42.805,6.029,0.024,-0.009,-0.041,99.0,106.0,99.0,13.4,1505.4,325.2,-0.7,1.8,2470.157,13.35,0.025,110.6
2019-11-17T01:58:03,42.805,6.029,0.007,0.031,-0.027,99.0,106.0,98.0,13.4,1505.4,328.5,-0.7,1.9,2470.142,13.35,0.031,12.7
2019-11-17T02:04:02,42.805,6.029,-0.014,0.036,-0.07,100.0,106.0,98.0,13.3,1505.3,326.8,-0.8,1.8,2470.216,13.33,0.038,338.8
2019-11-17T02:07:03,42.805,6.029,0.018,0.015,-0.037,99.0,105.0,98.0,13.3,1505.4,325.9,-0.7,1.8,2470.129,13.34,0.023,50.2
2019-11-17T02:10:03,42.805,6.029,0.01,0.004,-0.016,101.0,106.0,98.0,13.4,1505.4,325.0,-0.7,1.8,2470.139,13.34,0.01,68.2
2019-11-17T02:13:03,42.805,6.029,0.009,0.033,-0.023,101.0,106.0,98.0,13.4,1505.4,327.3,-0.7,1.8,2470.134,13.34,0.034,15.3
2019-11-17T02:19:03,42.805,6.029,0.016,0.055,-0.022,100.0,105.0,97.0,13.4,1505.3,324.6,-0.7,1.9,2470.174,13.33,0.057,16.2
2019-11-17T02:22:03,42.805,6.029,0.012,0.011,-0.025,100.0,105.0,99.0,13.4,1505.3,325.8,-0.7,1.9,2470.237,13.33,0.016,47.5
2019-11-17T02:25:03,42.805,6.029,0.009,0.025,-0.052,101.0,106.0,99.0,13.4,1505.4,327.6,-0.7,1.8,2470.178,13.34,0.026,19.8
2019-11-17T02:28:03,42.805,6.029,0.002,0.01,-0.017,99.0,105.0,99.0,13.4,1505.4,326.0,-0.7,1.8,2470.168,13.34,0.01,11.3
2019-11-17T02:31:03,42.805,6.029,0.051,0.024,0.001,102.0,105.0,98.0,13.4,1505.4,327.9,-0.7,1.8,2470.137,13.34,0.056,64.8
2019-11-17T02:34:03,42.805,6.029,0.042,0.033,-0.013,101.0,105.0,100.0,13.4,1505.4,325.2,-0.7,1.8,2470.179,13.34,0.053,51.8
2019-11-17T02:37:03,42.805,6.029,0.012,0.038,-0.002,98.0,106.0,99.0,13.3,1505.4,328.1,-0.7,1.9,2470.164,13.34,0.039,17.5
2019-11-17T02:40:03,42.805,6.029,0.044,0.032,-0.004,101.0,105.0,99.0,13.4,1505.4,326.5,-0.7,1.8,2470.084,13.35,0.054,54.0
2019-11-17T02:43:03,42.805,6.029,0.039,0.015,-0.006,101.0,106.0,99.0,13.4,1505.4,327.8,-0.7,1.8,2470.134,13.35,0.041,69.0
2019-11-17T02:46:03,42.805,6.029,0.036,0.038,0.037,101.0,107.0,98.0,13.4,1505.4,324.0,-0.7,1.8,2470.128,13.35,0.052,43.5
2019-11-17T02:49:03,42.805,6.029,0.032,0.042,0.007,100.0,106.0,97.0,13.3,1505.4,323.2,-0.7,1.9,2470.121,13.35,0.052,37.3
2019-11-17T02:52:03,42.805,6.029,0.015,0.04,-0.031,103.0,105.0,98.0,13.4,1505.4,328.3,-0.7,1.9,2470.11,13.35,0.042,20.6
2019-11-17T02:55:03,42.805,6.029,0.038,0.013,-0.015,100.0,106.0,98.0,13.4,1505.4,325.6,-0.7,1.8,2470.119,13.35,0.04,71.1
2019-11-17T02:58:03,42.805,6.029,0.023,0.005,0.008,99.0,108.0,97.0,13.4,1505.4,325.3,-0.7,1.8,2470.174,13.35,0.023,77.7
2019-11-17T03:04:03,42.805,6.029,0.043,0.054,0.039,100.0,105.0,98.0,13.4,1505.3,327.1,-0.7,1.9,2470.158,13.33,0.069,38.5
2019-11-17T03:07:03,42.805,6.029,0.038,0.032,0.002,100.0,106.0,98.0,13.4,1505.4,327.0,-0.7,1.8,2470.145,13.34,0.049,49.9
2019-11-17T03:10:03,42.805,6.029,0.029,0.048,-0.006,102.0,106.0,98.0,13.4,1505.4,326.5,-0.7,1.8,2470.123,13.34,0.056,31.1
2019-11-17T03:13:03,42.805,6.029,0.047,0.037,0.012,99.0,106.0,98.0,13.4,1505.4,325.2,-0.7,1.8,2470.192,13.34,0.059,51.8
2019-11-17T03:16:03,42.805,6.029,0.046,-0.001,-0.049,100.0,106.0,98.0,13.4,1505.4,324.9,-0.7,1.9,2470.134,13.34,0.046,91.2
2019-11-17T03:19:03,42.805,6.029,0.07,0.034,0.001,100.0,106.0,97.0,13.4,1505.4,325.1,-0.7,1.8,2470.103,13.34,0.077,64.1
2019-11-17T03:22:03,42.805,6.029,0.053,0.021,0.021,100.0,105.0,99.0,13.4,1505.4,326.0,-0.7,1.8,2470.121,13.34,0.057,68.4
2019-11-17T03:25:03,42.805,6.029,0.051,0.041,-0.012,98.0,104.0,99.0,13.4,1505.4,323.4,-0.7,1.8,2470.115,13.35,0.065,51.2
2019-11-17T03:28:03,42.805,6.029,0.047,0.03,0.012,101.0,106.0,100.0,13.4,1505.4,324.8,-0.7,1.8,2470.096,13.35,0.055,57.4
2019-11-17T03:31:03,42.805,6.029,0.042,0.017,-0.007,100.0,106.0,99.0,13.4,1505.4,324.1,-0.7,1.8,2470.091,13.35,0.045,68.0
2019-11-17T03:34:03,42.805,6.029,0.044,0.03,0.011,98.0,105.0,98.0,13.4,1505.4,325.4,-0.7,1.9,2470.104,13.35,0.053,55.7
2019-11-17T03:37:03,42.805,6.029,0.038,0.022,-0.019,100.0,105.0,98.0,13.3,1505.4,326.8,-0.7,1.8,2470.082,13.35,0.043,59.9
2019-11-17T03:40:03,42.805,6.029,0.048,0.014,-0.004,101.0,104.0,98.0,13.4,1505.4,326.3,-0.7,1.8,2470.104,13.35,0.05,73.7
2019-11-17T03:43:03,42.805,6.029,0.05,0.033,0.029,101.0,106.0,97.0,13.4,1505.4,328.7,-0.7,1.8,2470.088,13.35,0.059,56.6
2019-11-17T03:46:03,42.805,6.029,0.026,0.012,-0.014,99.0,105.0,99.0,13.4,1505.4,323.5,-0.7,1.9,2470.099,13.35,0.028,65.2
2019-11-17T03:49:03,42.805,6.029,0.046,0.027,0.01,102.0,106.0,98.0,13.4,1505.4,326.3,-0.8,1.8,2470.102,13.35,0.053,59.6
2019-11-17T03:52:03,42.805,6.029,0.069,0.021,0.008,100.0,106.0,98.0,13.4,1505.4,327.6,-0.7,1.8,2470.13,13.35,0.072,73.1
2019-11-17T03:55:03,42.805,6.029,0.036,0.017,-0.021,102.0,105.0,98.0,13.3,1505.4,326.7,-0.7,1.8,2470.095,13.35,0.039,64.7
2019-11-17T03:58:03,42.805,6.029,0.041,0.039,0.024,101.0,106.0,98.0,13.4,1505.4,327.7,-0.7,1.8,2470.147,13.35,0.056,46.4
2019-11-17T04:04:03,42.805,6.029,0.05,0.034,0.016,101.0,105.0,97.0,13.4,1505.3,328.5,-0.8,1.8,2470.128,13.33,0.06,55.8
2019-11-17T04:07:03,42.805,6.029,0.058,0.029,-0.012,100.0,106.0,98.0,13.4,1505.4,324.2,-0.7,1.9,2470.121,13.34,0.064,63.4
2019-11-17T04:10:03,42.805,6.029,0.062,0.022,0.007,100.0,105.0,98.0,13.3,1505.4,326.8,-0.7,1.8,2470.091,13.34,0.065,70.5
2019-11-17T04:13:03,42.805,6.029,0.042,0.019,-0.007,100.0,106.0,100.0,13.4,1505.4,326.9,-0.7,1.9,2470.065,13.34,0.046,65.7
2019-11-17T04:16:03,42.805,6.029,0.043,0.02,0.006,101.0,106.0,98.0,13.3,1505.4,326.7,-0.7,1.8,2470.109,13.35,0.047,65.1
2019-11-17T04:19:03,42.805,6.029,0.057,0.023,0.001,98.0,107.0,98.0,13.3,1505.4,323.7,-0.7,1.8,2470.082,13.35,0.061,68.0
2019-11-17T04:22:03,42.805,6.029,0.044,0.057,0.014,100.0,105.0,98.0,13.4,1505.4,325.2,-0.7,1.9,2470.077,13.35,0.072,37.7
2019-11-17T04:25:03,42.805,6.029,0.034,0.026,-0.02,99.0,106.0,98.0,13.4,1505.4,326.4,-0.7,1.9,2470.083,13.35,0.042,52.6
2019-11-17T04:28:03,42.805,6.029,0.042,0.028,0.013,100.0,105.0,98.0,13.3,1505.4,326.0,-0.7,1.9,2470.098,13.35,0.05,56.3
2019-11-17T04:31:03,42.805,6.029,0.057,0.019,0.042,100.0,105.0,98.0,13.4,1505.4,325.6,-0.7,1.8,2470.106,13.35,0.06,71.6
2019-11-17T04:34:03,42.805,6.029,0.046,0.045,-0.021,102.0,106.0,98.0,13.4,1505.4,324.0,-0.7,1.8,2470.043,13.35,0.064,45.6
2019-11-17T04:37:03,42.805,6.029,0.012,0.044,0.002,101.0,105.0,98.0,13.4,1505.4,323.8,-0.7,1.8,2470.05,13.35,0.045,15.3
2019-11-17T04:40:03,42.805,6.029,0.055,0.028,0.0,100.0,106.0,98.0,13.4,1505.4,323.5,-0.7,1.8,2470.069,13.35,0.061,63.0
2019-11-17T04:43:03,42.805,6.029,0.029,0.039,0.039,99.0,107.0,98.0,13.3,1505.4,324.6,-0.7,1.8,2470.138,13.35,0.048,36.6
2019-11-17T04:46:03,42.805,6.029,0.038,0.037,-0.017,99.0,106.0,99.0,13.3,1505.4,327.1,-0.7,1.9,2470.089,13.35,0.053,45.8
2019-11-17T04:49:03,42.805,6.029,0.026,0.043,-0.026,100.0,107.0,98.0,13.4,1505.4,328.3,-0.7,1.8,2470.06,13.35,0.05,31.2
2019-11-17T04:52:03,42.805,6.029,0.036,0.028,-0.016,100.0,106.0,98.0,13.4,1505.4,326.7,-0.7,1.8,2470.089,13.35,0.045,52.1
2019-11-17T04:55:03,42.805,6.029,0.046,0.035,0.009,100.0,106.0,98.0,13.4,1505.4,325.8,-0.8,1.8,2470.083,13.35,0.057,52.7
2019-11-17T04:58:03,42.805,6.029,0.011,0.012,-0.011,102.0,106.0,98.0,13.4,1505.4,326.4,-0.7,1.8,2470.063,13.35,0.016,42.5
2019-11-17T05:04:02,42.805,6.029,0.023,0.034,-0.014,99.0,106.0,97.0,13.4,1505.3,326.1,-0.7,1.8,2470.145,13.33,0.041,34.1
2019-11-17T05:07:03,42.805,6.029,0.017,0.023,-0.012,99.0,106.0,99.0,13.4,1505.4,327.6,-0.7,1.8,2470.074,13.34,0.028,36.5
2019-11-17T05:10:03,42.805,6.029,0.01,0.033,-0.012,100.0,106.0,98.0,13.4,1505.4,326.4,-0.7,1.8,2470.112,13.34,0.034,16.9
2019-11-17T05:13:03,42.805,6.029,0.022,0.023,-0.05,99.0,107.0,98.0,13.4,1505.4,327.9,-0.7,1.8,2470.101,13.34,0.031,43.7
2019-11-17T05:16:03,42.805,6.029,0.012,0.02,-0.009,100.0,107.0,98.0,13.4,1505.4,326.6,-0.7,1.8,2470.118,13.35,0.023,31.0
2019-11-17T05:19:03,42.805,6.029,0.002,0.008,0.013,99.0,108.0,98.0,13.4,1505.4,327.4,-0.7,1.8,2470.104,13.35,0.008,14.0
2019-11-17T05:22:03,42.805,6.029,0.01,0.033,-0.024,101.0,107.0,98.0,13.4,1505.4,324.9,-0.7,1.8,2470.073,13.35,0.034,16.9
2019-11-17T05:25:03,42.805,6.029,0.004,0.034,-0.057,101.0,105.0,98.0,13.3,1505.4,323.1,-0.7,1.8,2470.08,13.35,0.034,6.7
2019-11-17T05:28:03,42.805,6.029,-0.024,0.03,-0.018,99.0,107.0,99.0,13.4,1505.4,325.8,-0.7,1.8,2470.122,13.35,0.038,321.3
2019-11-17T05:31:03,42.805,6.029,0.02,0.031,-0.004,100.0,106.0,98.0,13.4,1505.4,326.3,-0.7,1.8,2470.075,13.35,0.036,32.8
2019-11-17T05:34:03,42.805,6.029,0.025,0.023,-0.018,100.0,106.0,97.0,13.4,1505.4,325.3,-0.7,1.8,2470.125,13.35,0.033,47.4
2019-11-17T05:37:03,42.805,6.029,0.027,0.046,0.011,101.0,106.0,98.0,13.4,1505.4,324.3,-0.7,1.8,2470.091,13.35,0.053,30.4
2019-11-17T05:40:03,42.805,6.029,0.021,0.035,-0.033,100.0,106.0,98.0,13.4,1505.4,324.2,-0.7,1.8,2470.127,13.35,0.04,31.0
2019-11-17T05:43:03,42.805,6.029,0.008,0.028,-0.039,101.0,107.0,99.0,13.3,1505.4,328.5,-0.7,1.8,2470.131,13.35,0.029,15.9
2019-11-17T05:46:03,42.805,6.029,-0.002,0.025,-0.009,100.0,106.0,99.0,13.4,1505.4,325.6,-0.8,1.8,2470.123,13.35,0.025,355.4
2019-11-17T05:49:03,42.805,6.029,0.005,0.016,-0.026,102.0,108.0,98.0,13.3,1505.4,325.4,-0.7,1.8,2470.1,13.35,0.016,17.4
2019-11-17T05:52:02,42.805,6.029,-0.011,0.023,-0.033,100.0,107.0,98.0,13.4,1505.4,324.8,-0.7,1.9,2470.1,13.35,0.025,334.4
2019-11-17T05:55:03,42.805,6.029,0.01,0.014,-0.027,100.0,107.0,98.0,13.3,1505.4,325.1,-0.7,1.8,2470.133,13.35,0.017,35.5
2019-11-17T05:58:03,42.805,6.029,0.023,0.002,-0.038,102.0,107.0,97.0,13.3,1505.4,326.8,-0.8,1.9,2470.105,13.35,0.023,85.0
2019-11-17T06:04:03,42.805,6.029,0.009,0.027,-0.022,100.0,108.0,98.0,13.4,1505.3,326.0,-0.7,1.8,2470.118,13.33,0.028,18.4
2019-11-17T06:07:03,42.805,6.029,0.019,0.017,-0.015,101.0,107.0,98.0,13.4,1505.4,324.5,-0.7,1.9,2470.159,13.34,0.025,48.2
2019-11-17T06:10:03,42.805,6.029,0.025,0.031,-0.048,100.0,108.0,99.0,13.4,1505.4,325.5,-0.7,1.8,2470.142,13.34,0.039,38.9
2019-11-17T06:13:03,42.805,6.029,0.045,0.006,-0.001,101.0,108.0,96.0,13.4,1505.4,328.0,-0.7,1.9,2470.154,13.34,0.045,82.4
2019-11-17T06:16:03,42.805,6.029,0.031,0.018,-0.013,100.0,107.0,97.0,13.4,1505.4,325.4,-0.7,1.8,2470.166,13.34,0.035,59.9
2019-11-17T06:19:03,42.805,6.029,0.039,0.023,0.01,101.0,108.0,97.0,13.4,1505.4,325.0,-0.7,1.8,2470.189,13.34,0.045,59.5
2019-11-17T06:22:02,42.805,6.029,0.032,0.028,-0.013,100.0,107.0,98.0,13.4,1505.4,324.5,-0.7,1.8,2470.154,13.34,0.042,48.8
2019-11-17T06:25:03,42.805,6.029,0.0,0.031,-0.034,102.0,106.0,98.0,13.3,1505.4,324.6,-0.7,1.8,2470.136,13.34,0.03,0.0
2019-11-17T06:28:03,42.805,6.029,-0.006,0.013,-0.05,100.0,108.0,97.0,13.4,1505.4,326.6,-0.7,1.8,2470.171,13.34,0.014,335.2
2019-11-17T06:31:03,42.805,6.029,0.019,0.037,-0.014,100.0,111.0,99.0,13.4,1505.4,327.4,-0.7,1.9,2470.149,13.34,0.041,27.2
2019-11-17T06:34:03,42.805,6.029,0.0,0.002,-0.048,99.0,108.0,97.0,13.4,1505.4,323.9,-0.7,1.8,2470.145,13.34,0.002,0.0
2019-11-17T06:37:03,42.805,6.029,0.007,0.035,-0.05,99.0,108.0,98.0,13.4,1505.4,327.5,-0.7,1.8,2470.187,13.34,0.035,11.3
2019-11-17T06:40:03,42.805,6.029,-0.014,0.021,-0.071,100.0,107.0,97.0,13.3,1505.4,326.0,-0.7,1.8,2470.173,13.34,0.025,326.3
2019-11-17T06:43:03,42.805,6.029,-0.011,0.024,-0.056,100.0,107.0,98.0,13.3,1505.4,327.9,-0.7,1.9,2470.151,13.34,0.026,335.4
2019-11-17T06:46:03,42.805,6.029,0.014,0.012,-0.07,99.0,108.0,97.0,13.4,1505.4,326.6,-0.7,1.9,2470.186,13.34,0.018,49.4
2019-11-17T06:49:03,42.805,6.029,0.033,0.04,-0.018,101.0,108.0,97.0,13.4,1505.3,328.1,-0.7,1.8,2470.168,13.33,0.051,39.5
2019-11-17T06:52:03,42.805,6.029,0.014,0.039,-0.026,99.0,108.0,98.0,13.4,1505.3,325.4,-0.7,1.8,2470.232,13.33,0.041,19.7
2019-11-17T06:55:03,42.805,6.029,0.009,0.036,-0.021,100.0,108.0,97.0,13.3,1505.3,323.7,-0.7,1.8,2470.207,13.33,0.037,14.0
2019-11-17T06:58:03,42.805,6.029,0.008,0.036,-0.043,100.0,108.0,98.0,13.3,1505.3,326.0,-0.7,1.8,2470.181,13.33,0.036,12.5
2019-11-17T07:04:03,42.805,6.029,0.025,0.02,-0.05,99.0,108.0,97.0,13.4,1505.3,326.7,-0.7,1.9,2470.228,13.31,0.032,51.3
2019-11-17T07:07:03,42.805,6.029,0.002,0.008,-0.038,99.0,107.0,101.0,13.4,1505.3,328.8,-0.7,1.8,2470.202,13.32,0.008,14.0
2019-11-17T07:10:03,42.805,6.029,-0.001,0.025,-0.064,99.0,108.0,97.0,13.3,1505.3,326.6,-0.7,1.8,2470.251,13.32,0.025,357.7
2019-11-17T07:13:03,42.805,6.029,0.018,0.031,-0.073,100.0,106.0,98.0,13.4,1505.3,328.3,-0.7,1.8,2470.21,13.32,0.035,30.1
2019-11-17T07:16:03,42.805,6.029,0.003,0.031,-0.056,99.0,107.0,98.0,13.4,1505.3,326.5,-0.7,1.8,2470.185,13.33,0.031,5.5
2019-11-17T07:19:03,42.805,6.029,0.031,0.027,-0.032,99.0,108.0,98.0,13.4,1505.3,324.4,-0.7,1.8,2470.19,13.33,0.041,48.9
2019-11-17T07:22:03,42.805,6.029,0.03,0.029,-0.036,100.0,106.0,97.0,13.4,1505.3,325.0,-0.7,1.8,2470.189,13.33,0.041,46.0
2019-11-17T07:25:03,42.805,6.029,0.012,0.028,-0.041,100.0,106.0,96.0,13.4,1505.3,324.0,-0.7,1.8,2470.219,13.33,0.03,23.2
2019-11-17T07:28:03,42.805,6.029,0.032,0.031,-0.036,100.0,107.0,97.0,13.4,1505.3,323.5,-0.7,1.9,2470.199,13.33,0.044,45.9
2019-11-17T07:31:03,42.805,6.029,0.054,0.012,-0.02,101.0,105.0,97.0,13.4,1505.3,327.3,-0.7,1.9,2470.215,13.33,0.055,77.5
2019-11-17T07:34:03,42.805,6.029,0.014,0.033,-0.025,99.0,108.0,98.0,13.4,1505.3,326.0,-0.7,1.8,2470.207,13.33,0.035,23.0
2019-11-17T07:37:03,42.805,6.029,0.014,0.041,-0.038,101.0,107.0,98.0,13.4,1505.3,327.2,-0.7,1.8,2470.202,13.33,0.043,18.9
2019-11-17T07:40:03,42.805,6.029,0.008,0.039,-0.069,99.0,108.0,97.0,13.3,1505.3,325.7,-0.7,1.9,2470.209,13.33,0.039,11.6
2019-11-17T07:43:03,42.805,6.029,-0.006,0.022,-0.024,99.0,107.0,98.0,13.4,1505.3,326.4,-0.7,1.8,2470.202,13.33,0.022,344.7
2019-11-17T07:46:03,42.805,6.029,0.033,0.037,-0.049,99.0,107.0,97.0,13.4,1505.3,326.2,-0.7,1.8,2470.237,13.33,0.049,41.7
2019-11-17T07:49:03,42.805,6.029,-0.001,0.04,-0.042,98.0,108.0,96.0,13.3,1505.3,326.4,-0.7,1.8,2470.22,13.33,0.04,358.6
2019-11-17T07:52:03,42.805,6.029,0.022,0.011,-0.034,99.0,108.0,98.0,13.3,1505.3,324.7,-0.7,1.9,2470.207,13.33,0.024,63.4
2019-11-17T07:55:03,42.805,6.029,0.038,0.02,-0.026,99.0,107.0,98.0,13.3,1505.3,324.6,-0.7,1.9,2470.202,13.33,0.042,62.2
2019-11-17T07:58:03,42.805,6.029,0.028,0.0,-0.065,99.0,108.0,98.0,13.4,1505.3,326.7,-0.7,1.8,2470.249,13.33,0.028,90.0
2019-11-17T08:04:03,42.805,6.029,0.038,0.035,-0.039,100.0,109.0,98.0,13.4,1505.3,325.4,-0.8,1.8,2470.261,13.31,0.051,47.4
2019-11-17T08:07:03,42.805,6.029,0.036,0.042,-0.004,100.0,107.0,97.0,13.4,1505.3,325.8,-0.8,1.8,2470.258,13.31,0.055,40.6
2019-11-17T08:10:03,42.805,6.029,0.023,0.036,-0.053,100.0,107.0,98.0,13.4,1505.3,323.9,-0.7,1.8,2470.26,13.32,0.042,32.6
2019-11-17T08:13:03,42.805,6.029,0.004,0.025,-0.056,100.0,108.0,97.0,13.4,1505.3,326.4,-0.8,1.8,2470.264,13.32,0.025,9.1
2019-11-17T08:16:03,42.805,6.029,0.042,0.015,-0.018,99.0,108.0,97.0,13.4,1505.3,324.6,-0.7,1.8,2470.258,13.33,0.044,70.4
2019-11-17T08:19:03,42.805,6.029,0.019,0.035,-0.01,100.0,108.0,98.0,13.4,1505.3,324.8,-0.7,1.8,2470.234,13.33,0.039,28.5
2019-11-17T08:22:03,42.805,6.029,0.036,0.037,-0.024,98.0,108.0,97.0,13.3,1505.3,323.9,-0.7,1.9,2470.292,13.33,0.051,44.2
2019-11-17T08:25:03,42.805,6.029,0.006,0.034,-0.041,99.0,106.0,98.0,13.3,1505.3,326.6,-0.7,1.8,2470.245,13.33,0.034,10.0
2019-11-17T08:28:03,42.805,6.029,0.018,0.034,-0.032,99.0,107.0,98.0,13.4,1505.3,325.1,-0.8,1.8,2470.293,13.33,0.038,27.9
2019-11-17T08:31:03,42.805,6.029,0.025,0.05,-0.019,100.0,107.0,98.0,13.3,1505.3,323.7,-0.7,1.8,2470.284,13.33,0.055,26.6
2019-11-17T08:34:03,42.805,6.029,0.018,0.015,-0.054,100.0,108.0,98.0,13.4,1505.3,324.9,-0.7,1.8,2470.291,13.33,0.023,50.2
2019-11-17T08:37:03,42.805,6.029,0.007,0.029,-0.024,100.0,106.0,98.0,13.3,1505.3,328.1,-0.8,1.8,2470.281,13.33,0.029,13.6
2019-11-17T08:40:03,42.805,6.029,0.039,0.002,-0.012,99.0,108.0,98.0,13.3,1505.3,328.6,-0.7,1.8,2470.263,13.33,0.039,87.1
2019-11-17T08:43:03,42.805,6.029,0.032,0.027,-0.043,101.0,107.0,97.0,13.4,1505.3,327.8,-0.7,1.8,2470.263,13.33,0.041,49.8
2019-11-17T08:46:03,42.805,6.029,0.019,0.02,-0.037,100.0,109.0,98.0,13.4,1505.3,325.7,-0.7,1.8,2470.287,13.33,0.027,43.5
2019-11-17T08:49:03,42.805,6.029,0.024,0.02,-0.024,98.0,108.0,98.0,13.4,1505.3,325.3,-0.7,1.8,2470.3,13.33,0.031,50.2
2019-11-17T08:52:03,42.805,6.029,0.019,0.041,-0.034,100.0,108.0,97.0,13.3,1505.3,325.4,-0.7,1.8,2470.289,13.33,0.045,24.9
2019-11-17T08:55:03,42.805,6.029,0.017,0.03,-0.021,98.0,107.0,98.0,13.4,1505.3,327.1,-0.7,1.8,2470.281,13.33,0.034,29.5
2019-11-17T08:58:03,42.805,6.029,0.031,0.036,-0.054,99.0,107.0,97.0,13.3,1505.3,323.8,-0.7,1.8,2470.244,13.33,0.047,40.7
2019-11-17T09:04:03,42.805,6.029,0.016,0.007,-0.044,100.0,107.0,99.0,13.4,1505.3,327.4,-0.7,1.8,2470.32,13.31,0.017,66.4
2019-11-17T09:07:03,42.805,6.029,0.018,0.018,-0.032,99.0,107.0,98.0,13.4,1505.3,327.6,-0.7,1.8,2470.292,13.31,0.025,45.0
2019-11-17T09:10:03,42.805,6.029,0.011,0.015,-0.051,99.0,107.0,97.0,13.4,1505.3,326.6,-0.7,1.8,2470.332,13.32,0.018,36.3
2019-11-17T09:13:03,42.805,6.029,0.034,0.032,-0.024,100.0,108.0,98.0,13.4,1505.3,324.4,-0.7,1.8,2470.294,13.32,0.046,46.7
2019-11-17T09:16:03,42.805,6.029,0.019,0.007,-0.025,99.0,108.0,98.0,13.4,1505.3,326.3,-0.7,1.8,2470.299,13.32,0.02,69.8
2019-11-17T09:19:03,42.805,6.029,0.03,0.024,-0.052,100.0,108.0,98.0,13.4,1505.3,327.9,-0.7,1.8,2470.27,13.32,0.038,51.3
2019-11-17T09:22:03,42.805,6.029,0.048,0.046,0.017,100.0,108.0,99.0,13.4,1505.3,325.3,-0.7,1.8,2470.324,13.33,0.066,46.2
2019-11-17T09:25:03,42.805,6.029,0.06,0.041,0.008,100.0,107.0,98.0,13.4,1505.3,324.5,-0.7,1.8,2470.263,13.33,0.072,55.7
2019-11-17T09:28:03,42.805,6.029,0.067,0.026,0.004,99.0,107.0,98.0,13.4,1505.3,327.9,-0.7,1.9,2470.277,13.33,0.071,68.8
2019-11-17T09:31:03,42.805,6.029,0.031,0.027,-0.041,101.0,107.0,97.0,13.3,1505.3,323.6,-0.7,1.8,2470.322,13.33,0.041,48.9
2019-11-17T09:34:03,42.805,6.029,0.044,0.012,-0.042,100.0,107.0,98.0,13.4,1505.3,328.4,-0.7,1.8,2470.298,13.33,0.045,74.7
2019-11-17T09:37:03,42.805,6.029,0.064,0.034,-0.003,98.0,108.0,100.0,13.4,1505.3,324.8,-0.7,1.9,2470.319,13.33,0.072,62.0
2019-11-17T09:40:03,42.805,6.029,0.031,0.024,-0.014,99.0,108.0,98.0,13.4,1505.3,328.5,-0.7,1.8,2470.298,13.33,0.039,52.3
2019-11-17T09:43:03,42.805,6.029,0.063,0.017,-0.026,100.0,106.0,98.0,13.4,1505.3,323.5,-0.7,1.8,2470.254,13.33,0.065,74.9
2019-11-17T09:46:03,42.805,6.029,0.033,0.035,-0.001,100.0,107.0,98.0,13.4,1505.3,323.4,-0.7,1.8,2470.274,13.33,0.048,43.3
2019-11-17T09:49:03,42.805,6.029,0.02,0.017,-0.053,100.0,107.0,99.0,13.4,1505.3,325.1,-0.7,1.8,2470.271,13.33,0.026,49.6
2019-11-17T09:52:02,42.805,6.029,0.027,0.021,-0.037,99.0,107.0,99.0,13.4,1505.3,326.2,-0.7,1.8,2470.299,13.33,0.034,52.1
2019-11-17T09:55:03,42.805,6.029,0.041,0.006,0.003,101.0,109.0,98.0,13.4,1505.3,326.5,-0.7,1.9,2470.325,13.33,0.041,81.7
2019-11-17T09:58:03,42.805,6.029,-0.006,0.019,-0.067,99.0,108.0,98.0,13.4,1505.3,325.5,-0.7,1.9,2470.308,13.33,0.019,342.5
2019-11-17T10:04:03,42.805,6.029,0.036,0.041,-0.013,101.0,108.0,97.0,13.4,1505.3,324.2,-0.7,1.8,2470.314,13.31,0.054,41.3
2019-11-17T10:07:03,42.805,6.029,0.036,0.025,-0.007,100.0,109.0,99.0,13.3,1505.3,325.6,-0.8,1.8,2470.337,13.31,0.043,55.2
2019-11-17T10:10:03,42.805,6.029,0.036,0.038,-0.023,100.0,108.0,98.0,13.3,1505.3,327.1,-0.7,1.8,2470.293,13.32,0.052,43.5
2019-11-17T10:13:03,42.805,6.029,0.018,0.009,-0.056,100.0,109.0,98.0,13.4,1505.3,325.8,-0.7,1.8,2470.333,13.32,0.02,63.4